Weather History for KLOT - October, 2013

Change the Weather History Date:

Saturday, October 19, 2013

  Actual Average Record
Temperature  
Mean Temperature 48 °F 52 °F  
Max Temperature 54 °F 62 °F 79 °F (1995)
Min Temperature 41 °F 42 °F 20 °F (1992)
Degree Days  
Heating Degree Days 17 13  
Month to date heating degree days 145 201  
Since 1 July heating degree days 217 300  
Cooling Degree Days 0 0  
Month to date cooling degree days 30 12  
Year to date cooling degree days 950 859  
Moisture  
Dew Point 36 °F    
Average Humidity 67    
Maximum Humidity 86    
Minimum Humidity 42    
Precipitation  
Precipitation T in 0.11 in 0.69 in (1995)
Month to date precipitation 2.67 2.14  
Year to date precipitation 33.56 33.09  
Snow  
Snow 0.00 in 0.00 in - ()
Month to date snowfall T 0.0  
Since 1 July snowfall T 0.0  
Since 1 September snowfall T 0.0  
Snow Depth 0.00 in    
Sea Level Pressure  
Sea Level Pressure 29.86 in    
Wind  
Wind Speed 8 mph (WSW)    
Max Wind Speed 17 mph    
Max Gust Speed 25 mph    
Visibility 10 miles    
Events Rain    
T = Trace of Precipitation, MM = Missing Value Source: NWS Daily Summary

Daily Weather History Graph

Daily Weather History Graph

Search for Another Location

Airport or City:

Trip Planner

Search our weather history database for the weather conditions in past years. The results will help you decide how hot, cold, wet, or windy it might be!

Date:

Astronomy

Oct. 19, 2013 Rise Set
Actual Time 7:09 AM CDT 6:04 PM CDT
Civil Twilight 6:41 AM CDT 6:32 PM CDT
Nautical Twilight 6:08 AM CDT 7:05 PM CDT
Astronomical Twilight 5:36 AM CDT 7:37 PM CDT
Moon 6:31 PM CDT (10/19) 7:47 AM CDT (10/19)
Length of Visible Light 11h 51m
Length of Day
10h 55m
Waxing Gibbous, 99% of the Moon is Illuminated
Oct 19
Waxing Gibbous
Oct 26
Last Quarter
Nov 3
New
Nov 9
First Quarter
Nov 17
Full

Hourly Weather History & Observations

Time (CDT) Temp. Windchill Dew Point Humidity Pressure Visibility Wind Dir Wind Speed Gust Speed Precip Events Conditions
12:15 AM 44.8 °F 39.9 °F 37.4 °F 75% 29.95 in 10.0 mi West 9.2 mph - N/A   Overcast
12:35 AM 44.6 °F 40.7 °F 37.4 °F 76% 29.93 in 10.0 mi West 6.9 mph - N/A   Light Drizzle
12:55 AM 44.4 °F 42.0 °F 37.6 °F 77% 29.93 in 10.0 mi West 4.6 mph - N/A   Light Drizzle
1:15 AM 44.1 °F 40.8 °F 37.8 °F 78% 29.92 in 10.0 mi West 5.8 mph - N/A   Overcast
1:35 AM 43.7 °F 41.1 °F 37.6 °F 79% 29.91 in 10.0 mi West 4.6 mph - N/A   Overcast
1:55 AM 43.7 °F 41.1 °F 37.4 °F 78% 29.91 in 10.0 mi WSW 4.6 mph - N/A   Overcast
2:15 AM 43.7 °F 41.1 °F 37.6 °F 79% 29.91 in 10.0 mi West 4.6 mph - N/A   Overcast
2:35 AM 43.7 °F 41.1 °F 37.4 °F 78% 29.90 in 10.0 mi WSW 4.6 mph - N/A   Overcast
2:55 AM 43.3 °F 41.7 °F 37.4 °F 80% 29.89 in 10.0 mi West 3.5 mph - N/A   Overcast
3:15 AM 43.2 °F 41.5 °F 37.6 °F 81% 29.89 in 10.0 mi SW 3.5 mph - N/A   Overcast
3:35 AM 42.8 °F 40.1 °F 37.6 °F 82% 29.88 in 10.0 mi WSW 4.6 mph - N/A   Overcast
3:55 AM 43.0 °F 39.5 °F 37.4 °F 81% 29.88 in 10.0 mi WSW 5.8 mph - N/A   Overcast
4:15 AM 43.2 °F 39.7 °F 37.4 °F 80% 29.88 in 10.0 mi SW 5.8 mph - N/A   Overcast
4:35 AM 43.2 °F 39.0 °F 37.8 °F 81% 29.88 in 10.0 mi SW 6.9 mph - N/A   Overcast
4:55 AM 43.2 °F 39.0 °F 37.4 °F 80% 29.87 in 10.0 mi SW 6.9 mph - N/A   Overcast
5:15 AM 43.3 °F 38.6 °F 36.9 °F 78% 29.87 in 10.0 mi SW 8.1 mph - N/A   Overcast
5:35 AM 43.3 °F 38.6 °F 36.9 °F 78% 29.87 in 10.0 mi WSW 8.1 mph - N/A   Overcast
5:55 AM 43.0 °F 38.2 °F 36.9 °F 79% 29.87 in 10.0 mi WSW 8.1 mph - N/A   Mostly Cloudy
6:15 AM 42.6 °F 37.8 °F 37.2 °F 81% 29.87 in 10.0 mi WSW 8.1 mph - N/A   Mostly Cloudy
6:35 AM 42.1 °F 36.6 °F 37.4 °F 83% 29.87 in 10.0 mi WSW 9.2 mph - N/A   Overcast
6:55 AM 41.9 °F 37.5 °F 37.4 °F 84% 29.87 in 10.0 mi WSW 6.9 mph - N/A   Overcast
7:15 AM 41.4 °F 37.6 °F 37.4 °F 86% 29.87 in 10.0 mi WSW 5.8 mph - N/A   Overcast
7:35 AM 41.2 °F 36.6 °F 37.4 °F 86% 29.87 in 10.0 mi WSW 6.9 mph - N/A   Overcast
7:55 AM 41.4 °F 36.8 °F 37.6 °F 86% 29.88 in 10.0 mi WSW 6.9 mph - N/A   Overcast
8:15 AM 41.5 °F 37.8 °F 37.4 °F 85% 29.88 in 10.0 mi WSW 5.8 mph - N/A   Mostly Cloudy
8:35 AM 42.4 °F 37.0 °F 37.6 °F 83% 29.88 in 10.0 mi WSW 9.2 mph - N/A   Scattered Clouds
8:55 AM 43.3 °F 37.2 °F 36.9 °F 78% 29.88 in 10.0 mi WSW 11.5 mph - N/A   Clear
9:15 AM 44.1 °F 37.7 °F 36.1 °F 74% 29.87 in 10.0 mi West 12.7 mph 17.3 mph N/A   Clear
9:35 AM 45.1 °F 39.5 °F 35.8 °F 70% 29.87 in 10.0 mi WSW 11.5 mph - N/A   Clear
9:55 AM 46.4 °F 41.5 °F 35.2 °F 65% 29.87 in 10.0 mi West 10.4 mph - N/A   Clear
10:15 AM 47.3 °F - 35.2 °F 63% 29.86 in 10.0 mi SW 10.4 mph - N/A   Clear
10:35 AM 48.2 °F - 34.2 °F 58% 29.85 in 10.0 mi West 10.4 mph - N/A   Clear
10:55 AM 49.6 °F - 33.6 °F 54% 29.85 in 10.0 mi WSW 10.4 mph 16.1 mph N/A   Clear
11:15 AM 50.7 °F - 33.8 °F 52% 29.84 in 10.0 mi SW 10.4 mph 16.1 mph N/A   Clear
11:35 AM 51.4 °F - 33.3 °F 50% 29.84 in 10.0 mi WSW 10.4 mph - N/A   Clear
11:55 AM 52.7 °F - 32.2 °F 46% 29.83 in 10.0 mi WSW 16.1 mph 20.7 mph N/A   Scattered Clouds
1:55 PM 53.4 °F - 31.5 °F 43% 29.81 in 10.0 mi WNW 17.3 mph 25.3 mph N/A   Scattered Clouds
2:15 PM 52.7 °F - 31.8 °F 45% 29.81 in 10.0 mi West 16.1 mph 20.7 mph N/A   Mostly Cloudy
2:35 PM 52.3 °F - 31.1 °F 44% 29.81 in 10.0 mi West 12.7 mph 20.7 mph N/A   Mostly Cloudy
2:55 PM 52.9 °F - 30.0 °F 42% 29.81 in 10.0 mi West 13.8 mph 21.9 mph N/A   Mostly Cloudy
3:15 PM 52.9 °F - 30.2 °F 42% 29.80 in 10.0 mi WSW 10.4 mph 24.2 mph N/A   Scattered Clouds
3:35 PM 54.3 °F - 31.3 °F 42% 29.80 in 10.0 mi West 13.8 mph 18.4 mph N/A   Mostly Cloudy
3:55 PM 52.0 °F - 29.8 °F 43% 29.80 in 10.0 mi West 9.2 mph 19.6 mph N/A   Overcast
4:15 PM 52.2 °F - 30.0 °F 43% 29.80 in 10.0 mi West 12.7 mph 18.4 mph N/A   Overcast
4:35 PM 52.3 °F - 30.0 °F 42% 29.80 in 10.0 mi WSW 15.0 mph 19.6 mph N/A   Overcast
4:55 PM 52.0 °F - 30.2 °F 43% 29.81 in 10.0 mi West 13.8 mph 18.4 mph N/A   Overcast
5:15 PM 51.8 °F - 30.6 °F 44% 29.81 in 10.0 mi West 16.1 mph 20.7 mph N/A   Overcast
5:35 PM 51.1 °F - 31.3 °F 47% 29.82 in 10.0 mi West 16.1 mph 19.6 mph N/A   Overcast
5:55 PM 48.6 °F - 35.6 °F 61% 29.83 in 10.0 mi West 11.5 mph 21.9 mph N/A   Drizzle
6:15 PM 48.4 °F - 35.4 °F 61% 29.84 in 10.0 mi West 15.0 mph 19.6 mph N/A   Light Drizzle
6:35 PM 47.7 °F - 36.3 °F 65% 29.84 in 10.0 mi West 13.8 mph 19.6 mph N/A Rain Light Rain
6:55 PM 47.1 °F - 36.9 °F 68% 29.85 in 10.0 mi West 10.4 mph 17.3 mph N/A Rain Light Rain
7:15 PM 46.8 °F - 37.2 °F 69% 29.85 in 10.0 mi West 6.9 mph - N/A   Overcast
7:35 PM 46.4 °F 44.3 °F 37.4 °F 71% 29.85 in 10.0 mi West 4.6 mph - N/A Rain Light Rain
7:55 PM 45.9 °F - 38.1 °F 74% 29.85 in 10.0 mi Calm Calm - N/A   Overcast
8:15 PM 45.5 °F 44.2 °F 37.8 °F 74% 29.84 in 10.0 mi SW 3.5 mph - N/A   Overcast
8:35 PM 44.1 °F 41.5 °F 38.1 °F 80% 29.85 in 10.0 mi SSW 4.6 mph - N/A   Overcast
8:55 PM 43.9 °F 40.5 °F 37.9 °F 80% 29.84 in 10.0 mi SSW 5.8 mph - N/A   Overcast
9:15 PM 45.0 °F 41.8 °F 37.4 °F 75% 29.84 in 10.0 mi SW 5.8 mph - N/A   Overcast
9:35 PM 45.9 °F 42.3 °F 37.4 °F 72% 29.84 in 10.0 mi SW 6.9 mph - N/A   Overcast
9:55 PM 47.7 °F - 36.7 °F 66% 29.84 in 10.0 mi SW 11.5 mph - N/A   Overcast
10:15 PM 48.4 °F - 36.7 °F 64% 29.84 in 10.0 mi WSW 13.8 mph 18.4 mph N/A   Overcast
10:35 PM 49.1 °F - 36.0 °F 61% 29.84 in 10.0 mi WSW 12.7 mph 19.6 mph N/A   Overcast
10:55 PM 49.5 °F - 35.4 °F 58% 29.84 in 10.0 mi WSW 9.2 mph - N/A   Overcast
11:15 PM 49.1 °F - 35.8 °F 60% 29.84 in 10.0 mi SW 11.5 mph 16.1 mph N/A   Overcast
11:35 PM 48.2 °F - 36.9 °F 65% 29.84 in 10.0 mi SW 9.2 mph - N/A   Overcast
11:55 PM 47.3 °F - 37.8 °F 69% 29.84 in 10.0 mi SW 9.2 mph - N/A   Overcast